カタログに戻る

USA 405

運用中軍事VLEO
NORAD 61026·PAYLOAD·🇺🇸 United States

打ち上げ Sep 6, 2024 から Vandenberg Space Force Base

Loading…

次のパス (今後24時間)

TLE

古いSource: Mike McCants

元期: Sep 9, 2026, 20:02 UTC

1 61026U 24160F   26252.83477627 0.00000000  00000-0  00000-0 0    02
2 61026  70.0198 144.3998 0003000  96.1132 263.8867 14.96713650    07

AllMySatでUSA 405をリアルタイム追跡

Download on the App Store